This is the latest recevied weather packets stored in our database for station/object WD9U. If no packets are shown the sender has not sent any weather packets the latest 10 day(s).
| Time | Temp. | Humidity | Pressure | Rain* | Wind** | Luminosity | Snow |
|---|---|---|---|---|---|---|---|
| 1777644437 | 3.89° C | 56% | 1020.5 hPa | 0 mm | - | 458 W/m² | - |
| 1777644077 | 3.89° C | 59% | 1020.7 hPa | 0 mm | - | 404 W/m² | - |
| 1777643717 | 3.89° C | 61% | 1020.5 hPa | 0 mm | - | 444 W/m² | - |
| 1777643357 | 3.33° C | 61% | 1020.5 hPa | 0 mm | - | 438 W/m² | - |
| 1777643119 | 3.33° C | 61% | 1020.5 hPa | 0 mm | - | 420 W/m² | - |
| 1777642997 | 3.33° C | 63% | 1020.5 hPa | 0 mm | - | 418 W/m² | - |
| 1777642637 | 3.33° C | 64% | 1020.4 hPa | 0 mm | - | 399 W/m² | - |
| 1777642277 | 3.33° C | 64% | 1020.5 hPa | 0 mm | - | 376 W/m² | - |
| 1777641916 | 3.33° C | 65% | 1020.5 hPa | 0 mm | - | 380 W/m² | - |
| 1777641556 | 2.78° C | 67% | 1020.5 hPa | 0 mm | - | 370 W/m² | - |
| 1777641196 | 2.78° C | 65% | 1020.3 hPa | 0 mm | - | 348 W/m² | - |
| 1777640836 | 2.78° C | 65% | 1020.3 hPa | 0 mm | - | 322 W/m² | - |
| 1777640718 | 2.78° C | 66% | 1020.3 hPa | 0 mm | - | 316 W/m² | - |
| 1777640476 | 2.22° C | 66% | 1020.3 hPa | 0 mm | - | 260 W/m² | - |
| 1777640116 | 2.22° C | 67% | 1020.2 hPa | 0 mm | - | 189 W/m² | - |
| 1777639756 | 2.22° C | 68% | 1020.2 hPa | 0 mm | - | 99 W/m² | - |
| 1777639518 | 2.22° C | 68% | 1020.2 hPa | 0 mm | - | 118 W/m² | - |
| 1777639396 | 2.22° C | 69% | 1020.1 hPa | 0 mm | - | 179 W/m² | - |
| 1777639036 | 1.67° C | 69% | 1020.1 hPa | 0 mm | - | 100 W/m² | - |
| 1777638676 | 1.67° C | 70% | 1020.2 hPa | 0 mm | - | 148 W/m² | - |
| 1777638316 | 1.67° C | 70% | 1020.1 hPa | 0 mm | - | 148 W/m² | - |
| 1777637956 | 1.67° C | 71% | 1020 hPa | 0 mm | - | 126 W/m² | - |
| 1777637596 | 1.67° C | 72% | 1020 hPa | 0 mm | - | 119 W/m² | - |
| 1777637236 | 1.11° C | 73% | 1019.8 hPa | 0 mm | - | 132 W/m² | - |
| 1777637118 | 1.11° C | 73% | 1019.8 hPa | 0 mm | - | 134 W/m² | - |
* Rain latest hour (hover to see other rain measurements)
** Current wind speed in m/s (hover to see current wind gust speed)